Regional Weather Roundup
Issued by NWS Sterling, VA

Home | Current Version | Previous Version | Text Only | Print | Product List | Glossary Off
Versions: 1 2 3 4 5 6 7 8 9 10 11 12 13 14 15 16 17 18 19 20 21 22 23 24 25 26 27

000
ASUS41 KLWX 230710
RWRLWX

REGIONAL WEATHER ROUNDUP
NATIONAL WEATHER SERVICE BALTIMORE MD/WASHINGTON DC
300 AM EDT THU OCT 23 2014

Note: "FAIR" indicates few or no clouds below 12,000 feet
with no significant weather and/or obstructions to visibility.
 TC=TEMPERATURE CELSIUS

 * =Non NWS site. Station does not report precipitation (e.g. rain,
    snow, etc.), thunder, or fog.

DCZ001-MDZ009-015-VAZ040>042-051-053>054-230800-
WASHINGTON METRO

CITY           SKY/WX    TMP DP  RH WIND       PRES   REMARKS
WASHINGTON NAT CLOUDY    54  41  61 NW20G26   29.89F
DULLES         MOCLDY    50  41  71 NW21      29.92F
ANDREWS AFB    CLOUDY    52  42  71 NW15G22   29.87F
FT BELVOIR     CLOUDY    52  42  69 NW21      29.90F
QUANTICO       MOCLDY    52  41  66 NW14G23   29.92F
COLLEGE PARK*  CLOUDY    52  43  71 NW8       29.88F
LEESBURG*      CLOUDY    50  45  81 NW23      29.94F
MANASSAS*      PTCLDY    52  43  71 NW13G21   29.93F
GAITHERSBURG*  MOCLDY    48  41  76 NW12      29.92F

$$

MDZ006>007-011-014-230800-
BALTIMORE METRO

CITY           SKY/WX    TMP DP  RH WIND       PRES   REMARKS
BWI AIRPORT    CLOUDY    52  42  69 NW14G22   29.85F
MD SCIENCE CTR   N/A     54  42  64 MISG      29.85F
MARTIN STATE   CLOUDY    54  46  76 W14G23    29.85F
ANNAPOLIS      CLOUDY    54  44  69 NW13      29.84F
FORT MEADE*    CLOUDY    52  43  71 NW9       29.89F

$$

MDZ012-015-019>023-230800-
MARYLAND EASTERN SHORE

CITY           SKY/WX    TMP DP  RH WIND       PRES   REMARKS
OCEAN CITY     CLOUDY    51  47  86 NW14G21   29.75F
SALISBURY      CLOUDY    56  45  66 NW15G32   29.78F
BAY BRIDGE AP*   N/A     54  45  71 NW14G22   29.83F
CAMBRIDGE*     CLOUDY    55  45  67 NW16G25   29.81F VSB<1/4
EASTON*        CLOUDY    55  48  79 N18G25    29.85F

$$

MDZ017>025-230800-
SOUTHERN MARYLAND

CITY           SKY/WX    TMP DP  RH WIND       PRES   REMARKS
PATUXENT RIVER CLOUDY    53  44  71 NW24G31   29.84F
ST INIGOES     CLOUDY    53  43  68 W12G21    29.85F
LEONARDTOWN*   CLOUDY    52  43  71 W8        29.86F

$$

MDZ003>005-230800-
NORTH CENTRAL MARYLAND

CITY           SKY/WX    TMP DP  RH WIND       PRES   REMARKS
FREDERICK*     CLOUDY    55  41  58 NW14      29.94F
HAGERSTOWN APT CLOUDY    50  41  71 NW14      29.95F
WESTMINSTER*   CLOUDY    50  43  76 NW9G20    29.87F

$$

MDZ501>502-230800-
WESTERN MARYLAND

CITY           SKY/WX    TMP DP  RH WIND       PRES   REMARKS
OAKLAND*       FOG       37 N/A N/A NW9G16    30.06F VSB 1/4
CUMBERLAND*    CLOUDY    50  41  71 NW10G24   30.07F

$$

VAZ025>031-230800-
SHENANDOAH VALLEY

CITY           SKY/WX    TMP DP  RH WIND       PRES   REMARKS
WINCHESTER*    MOCLDY    50  37  62 NW10      29.98S
FRONT ROYAL*   FAIR      50  41  71 NW9G20    29.97F
LURAY*         CLOUDY    52  43  71 SW5       30.00F
NEW MARKET*    PTSUNNY   49  39  68 CALM      30.01F
STAUNTON*      MOCLDY    49  38  67 NW6       30.03F
WAYNESBORO*    FAIR      45  37  73 NW3       30.01F

$$

WVZ021-048>050-054>055-230800-
EASTERN WEST VIRGINIA PANHANDLE

CITY           SKY/WX    TMP DP  RH WIND       PRES   REMARKS
MARTINSBURG    PTCLDY    51  39  63 NW15G26   29.97F
PETERSBURG*    CLOUDY    50  38  64 NW12      30.07F

$$

VAZ036>039-050-230800-
CENTRAL FOOTHILLS

CITY           SKY/WX    TMP DP  RH WIND       PRES   REMARKS
CHARLOTTESVILL CLEAR     52  39  61 NW9G21    29.96F
CULPEPER*      CLEAR     54  43  66 NW7       29.94F
ORANGE*        CLEAR     52  41  66 W9        29.95F
GORDONSVILLE*  FAIR      51  40  63 NW8       29.93F
WARRENTON*     FAIR      52  46  82 NW15      29.93F

$$

VAZ055>057-230800-
NORTH AND CENTRAL PIEDMONT

CITY           SKY/WX    TMP DP  RH WIND       PRES   REMARKS
FREDERICKSBRG* CLEAR     52  43  71 NW9       29.92F
STAFFORD*      CLEAR     49  40  71 NW9       29.96F

$$

NCZ024-NYZ072-PAZ021-071-VAZ022-071-230800-
OTHER REGIONAL OBSERVATIONS

CITY           SKY/WX    TMP DP  RH WIND       PRES   REMARKS
NEW YORK CITY  CLOUDY    53  46  77 N10G23    29.74F
PHILADELPHIA   CLOUDY    52  46  80 NW21G30   29.76S
PITTSBURGH     MOCLDY    44  41  89 NW9       30.13F
ROANOKE        PTCLDY    49  38  65 NW12G21   30.09R
RICHMOND       CLEAR     51  42  71 W8        29.93S
RALEIGH        CLEAR     44  39  82 SW5       30.02S

$$

ANZ530>537-230800-
MARINE OBSERVATIONS

STATION/POSITION TIME  TEMP    WIND        PRES
                       AIR SEA DIR/SP/G
                 (UTC) (F)     (DEG/KT/KT) (MB)
THOMAS PT LIGHT  0700   54 62  320/ 18/ 21 1011.1F
BALT KEY BRIDGE  0700   55     310/ 23/ 29 1010.1F
COVE POINT       0700   54     340/ 23/ 31 1009.9F
LEWISETTA        0700   55 60  320/ 18/ 26 1010.8F
SOLOMONS ISLAND  0700      64                N/A
PINEY POINT      0700          330/ 27/ 32   N/A

$$




USA.gov is the U.S. government's official web portal to all federal, state and local government web resources and services.